Вернуться в каталог

STARLINK-32161

АктивенСвязьVLEO
NORAD 60593·PAYLOAD·🇺🇸 United States

Запущен Aug 20, 2024 с Cape Canaveral Space Force Station

Loading…

Ближайшие Пролёты (ближайшие 24 часа)

TLE

СвежийSource: CelesTrak SupGP

Эпоха: Sep 14, 2026, 21:08 UTC

1 60593C 24150L   26257.88104167 -.00066152  00000+0 -19544-2 0  2575
2 60593  53.1569 144.0510 0001285  91.2241  18.5106 15.34424196    15

Отслеживайте STARLINK-32161 в реальном времени с AllMySat

Download on the App Store